QPF
0.01 0.01 0.01 0.00 0.00 0.00 0.01 0.01 0.00 0.00 0.00 0.00 0.00 0.00 0.00 0.00 0.00 0.00 0.00 0.00 0.00 0.00 0.00 0.00 0.00 0.00 0.00 0.01 0.01 0.01 0.01 0.01 0.02 0.02 0.01 0.01 0.01 0.03 0.05 0.05 0.05 0.06 0.04
0.01 0.01 0.01 0.01 0.00 0.00 0.00 0.00 0.00 0.00 0.00 0.00 0.00 0.00 0.00 0.00 0.00 0.00 0.00 0.00 0.00 0.00 0.00 0.00 0.00 0.00 0.00 0.01 0.00 0.00 0.01 0.01 0.01 0.02 0.01 0.01 0.01 0.01 0.04 0.05 0.05 0.05 0.04
0.00 0.00 0.00 0.00 0.00 0.00 0.00 0.00 0.00 0.00 0.00 0.01 0.01 0.00 0.00 0.00 0.00 0.00 0.00 0.00 0.00 0.00 0.00 0.00 0.00 0.00 0.01 0.01 0.00 0.00 0.01 0.00 0.01 0.01 0.01 0.02 0.02 0.01 0.02 0.03 0.04 0.05 0.03
0.00 0.00 0.00 0.00 0.00 0.00 0.00 0.01 0.01 0.00 0.00 0.00 0.00 0.01 0.01 0.00 0.00 0.00 0.00 0.00 0.00 0.00 0.00 0.00 0.00 0.00 0.00 0.00 0.00 0.00 0.00 0.01 0.01 0.02 0.02 0.01 0.02 0.02 0.02 0.02 0.03 0.04 0.04
0.00 0.00 0.00 0.00 0.00 0.00 0.01 0.00 0.00 0.00 0.00 0.00 0.00 0.00 0.00 0.00 0.00 0.00 0.00 0.00 0.00 0.00 0.00 0.00 0.00 0.00 0.00 0.00 0.00 0.00 0.00 0.01 0.02 0.02 0.02 0.01 0.02 0.02 0.03 0.02 0.02 0.04 0.06
0.00 0.00 0.00 0.00 0.00 0.01 0.01 0.00 0.00 0.01 0.01 0.01 0.01 0.00 0.00 0.00 0.00 0.00 0.00 0.00 0.00 0.00 0.00 0.00 0.00 0.00 0.00 0.00 0.00 0.00 0.00 0.00 0.01 0.02 0.02 0.02 0.03 0.03 0.04 0.04 0.03 0.04 0.05
0.00 0.00 0.00 0.00 0.01 0.01 0.00 0.00 0.00 0.01 0.01 0.01 0.00 0.00 0.00 0.00 0.00 0.00 0.00 0.00 0.00 0.00 0.00 0.00 0.00 0.00 0.00 0.00 0.00 0.01 0.00 0.00 0.00 0.01 0.02 0.02 0.01 0.02 0.02 0.03 0.03 0.03 0.03
0.00 0.00 0.01 0.00 0.01 0.01 0.00 0.00 0.00 0.01 0.01 0.00 0.00 0.00 0.00 0.00 0.00 0.00 0.00 0.00 0.00 0.00 0.00 0.00 0.00 0.00 0.00 0.00 0.01 0.01 0.00 0.00 0.00 0.00 0.01 0.01 0.01 0.01 0.02 0.03 0.03 0.02 0.03
0.01 0.01 0.01 0.01 0.01 0.01 0.01 0.00 0.00 0.00 0.00 0.00 0.00 0.00 0.00 0.00 0.00 0.00 0.00 0.00 0.00 0.00 0.00 0.00 0.00 0.00 0.00 0.00 0.01 0.02 0.01 0.01 0.00 0.00 0.00 0.00 0.00 0.01 0.01 0.02 0.02 0.02 0.03
0.00 0.00 0.01 0.01 0.01 0.01 0.01 0.00 0.00 0.00 0.00 0.00 0.00 0.00 0.00 0.00 0.00 0.00 0.00 0.00 0.00 0.00 0.00 0.00 0.00 0.00 0.00 0.00 0.00 0.01 0.01 0.01 0.00 0.00 0.00 0.00 0.00 0.00 0.00 0.02 0.02 0.03 0.05
0.01 0.00 0.00 0.01 0.01 0.01 0.00 0.00 0.00 0.00 0.00 0.00 0.00 0.00 0.00 0.00 0.00 0.00 0.00 0.00 0.00 0.00 0.00 0.00 0.00 0.00 0.00 0.00 0.00 0.00 0.00 0.00 0.01 0.01 0.01 0.01 0.01 0.01 0.01 0.01 0.01 0.03 0.05
0.00 0.01 0.02 0.02 0.04 0.03 0.01 0.01 0.01 0.01 0.01 0.01 0.01 0.00 0.00 0.00 0.01 0.01 0.01 0.01 0.01 0.00 0.00 0.00 0.00 0.00 0.00 0.00 0.00 0.00 0.00 0.00 0.01 0.01 0.01 0.01 0.01 0.01 0.00 0.00 0.01 0.01 0.02
0.00 0.01 0.01 0.02 0.02 0.03 0.04 0.06 0.05 0.03 0.01 0.01 0.01 0.01 0.01 0.00 0.00 0.00 0.00 0.01 0.01 0.00 0.00 0.00 0.00 0.00 0.00 0.00 0.00 0.00 0.00 0.01 0.01 0.01 0.01 0.01 0.01 0.00 0.00 0.00 0.00 0.01 0.01
0.01 0.02 0.02 0.02 0.03 0.03 0.03 0.02 0.02 0.02 0.01 0.01 0.01 0.01 0.01 0.01 0.00 0.01 0.01 0.01 0.01 0.01 0.00 0.00 0.00 0.00 0.00 0.00 0.00 0.00 0.00 0.00 0.00 0.01 0.01 0.01 0.00 0.00 0.00 0.00 0.00 0.01 0.01
0.01 0.01 0.01 0.01 0.01 0.01 0.01 0.01 0.01 0.01 0.01 0.01 0.01 0.01 0.01 0.01 0.01 0.01 0.01 0.01 0.01 0.01 0.01 0.00 0.00 0.00 0.00 0.00 0.00 0.00 0.00 0.00 0.00 0.01 0.01 0.01 0.01 0.00 0.00 0.00 0.00 0.01 0.00
0.01 0.01 0.01 0.01 0.01 0.01 0.00 0.01 0.01 0.01 0.02 0.01 0.01 0.01 0.01 0.01 0.01 0.01 0.01 0.01 0.01 0.00 0.00 0.00 0.00 0.00 0.00 0.00 0.00 0.00 0.00 0.00 0.00 0.01 0.01 0.01 0.01 0.01 0.01 0.01 0.01 0.01 0.01
0.01 0.01 0.01 0.01 0.01 0.01 0.01 0.01 0.01 0.02 0.02 0.02 0.01 0.01 0.01 0.01 0.01 0.01 0.01 0.01 0.01 0.00 0.00 0.00 0.00 0.00 0.00 0.00 0.00 0.00 0.00 0.00 0.00 0.00 0.00 0.01 0.01 0.01 0.01 0.01 0.02 0.02 0.02
0.02 0.01 0.01 0.01 0.01 0.01 0.01 0.01 0.01 0.01 0.01 0.01 0.01 0.01 0.01 0.01 0.01 0.01 0.01 0.00 0.00 0.00 0.00 0.00 0.00 0.00 0.00 0.00 0.00 0.00 0.00 0.00 0.00 0.00 0.00 0.01 0.01 0.01 0.01 0.01 0.01 0.02 0.02
0.01 0.01 0.01 0.01 0.01 0.02 0.02 0.02 0.01 0.01 0.01 0.01 0.01 0.01 0.01 0.01 0.01 0.01 0.01 0.00 0.00 0.00 0.00 0.00 0.00 0.00 0.00 0.01 0.00 0.00 0.00 0.00 0.00 0.00 0.01 0.01 0.01 0.01 0.01 0.01 0.01 0.01 0.01
0.01 0.02 0.02 0.02 0.02 0.02 0.02 0.01 0.01 0.01 0.01 0.01 0.01 0.01 0.01 0.01 0.00 0.00 0.00 0.00 0.00 0.00 0.00 0.00 0.00 0.01 0.01 0.01 0.01 0.01 0.01 0.01 0.01 0.01 0.01 0.01 0.01 0.01 0.01 0.01 0.01 0.01 0.01
0.02 0.03 0.03 0.02 0.02 0.01 0.01 0.00 0.00 0.00 0.01 0.01 0.01 0.01 0.01 0.01 0.01 0.01 0.01 0.01 0.01 0.01 0.01 0.01 0.00 0.00 0.01 0.00 0.01 0.01 0.01 0.01 0.01 0.01 0.01 0.01 0.01 0.01 0.01 0.01 0.02 0.02 0.02
0.02 0.03 0.02 0.02 0.01 0.00 0.00 0.00 0.00 0.01 0.01 0.01 0.01 0.01 0.01 0.01 0.00 0.00 0.00 0.00 0.01 0.01 0.01 0.01 0.00 0.00 0.00 0.01 0.01 0.01 0.01 0.01 0.01 0.01 0.01 0.01 0.01 0.01 0.01 0.02 0.02 0.02 0.02
0.02 0.02 0.01 0.01 0.01 0.01 0.00 0.00 0.01 0.01 0.01 0.01 0.01 0.01 0.00 0.00 0.00 0.00 0.00 0.00 0.00 0.00 0.00 0.00 0.00 0.01 0.01 0.01 0.01 0.01 0.01 0.01 0.01 0.01 0.01 0.01 0.02 0.01 0.02 0.02 0.01 0.02 0.02
0.02 0.02 0.02 0.02 0.01 0.01 0.01 0.01 0.01 0.01 0.01 0.02 0.01 0.01 0.01 0.01 0.00 0.00 0.00 0.01 0.00 0.00 0.00 0.01 0.01 0.01 0.01 0.01 0.01 0.01 0.01 0.01 0.01 0.01 0.01 0.02 0.02 0.02 0.02 0.02 0.02 0.02 0.02
0.02 0.02 0.03 0.02 0.02 0.02 0.02 0.02 0.01 0.01 0.01 0.01 0.01 0.01 0.01 0.01 0.01 0.00 0.01 0.00 0.00 0.00 0.00 0.01 0.01 0.01 0.01 0.01 0.01 0.01 0.01 0.01 0.01 0.01 0.01 0.02 0.02 0.02 0.02 0.02 0.03 0.03 0.03
0.01 0.01 0.02 0.02 0.02 0.02 0.02 0.02 0.01 0.01 0.01 0.01 0.01 0.01 0.01 0.01 0.01 0.01 0.00 0.00 0.00 0.00 0.00 0.01 0.01 0.01 0.01 0.01 0.01 0.01 0.01 0.01 0.01 0.02 0.02 0.02 0.02 0.02 0.02 0.03 0.03 0.03 0.03
MSLP
1015.74 1015.94 1016.20 1016.52 1016.86 1017.20 1017.54 1017.85 1018.14 1018.42 1018.71 1019.00 1019.30 1019.60 1019.89 1020.16 1020.37 1020.54 1020.65 1020.72 1020.75 1020.77 1020.79 1020.82 1020.88 1020.97 1021.08 1021.21 1021.36 1021.52 1021.69 1021.88 1022.08 1022.29 1022.50 1022.72 1022.92 1023.09 1023.23 1023.33 1023.39 1023.41 1023.42
1015.33 1015.60 1015.93 1016.29 1016.67 1017.05 1017.40 1017.74 1018.04 1018.33 1018.61 1018.90 1019.19 1019.48 1019.77 1020.04 1020.29 1020.49 1020.65 1020.78 1020.86 1020.93 1020.98 1021.03 1021.08 1021.15 1021.22 1021.30 1021.40 1021.51 1021.65 1021.81 1021.98 1022.18 1022.39 1022.59 1022.77 1022.91 1023.02 1023.07 1023.08 1023.07 1023.03
1014.89 1015.24 1015.63 1016.06 1016.48 1016.90 1017.28 1017.63 1017.95 1018.24 1018.51 1018.78 1019.06 1019.33 1019.61 1019.87 1020.13 1020.36 1020.57 1020.75 1020.90 1021.02 1021.13 1021.22 1021.29 1021.36 1021.42 1021.48 1021.55 1021.63 1021.73 1021.87 1022.02 1022.20 1022.38 1022.56 1022.71 1022.82 1022.87 1022.88 1022.83 1022.76 1022.68
1014.42 1014.84 1015.30 1015.78 1016.25 1016.70 1017.11 1017.48 1017.81 1018.10 1018.37 1018.63 1018.89 1019.14 1019.39 1019.65 1019.90 1020.15 1020.39 1020.61 1020.81 1021.00 1021.16 1021.30 1021.42 1021.51 1021.58 1021.65 1021.71 1021.78 1021.86 1021.97 1022.11 1022.26 1022.42 1022.57 1022.68 1022.75 1022.77 1022.72 1022.63 1022.51 1022.37
1013.96 1014.42 1014.91 1015.42 1015.93 1016.40 1016.83 1017.23 1017.57 1017.88 1018.16 1018.41 1018.65 1018.88 1019.12 1019.36 1019.60 1019.84 1020.09 1020.34 1020.58 1020.81 1021.03 1021.22 1021.38 1021.51 1021.62 1021.69 1021.76 1021.82 1021.90 1022.00 1022.12 1022.25 1022.39 1022.52 1022.61 1022.66 1022.65 1022.58 1022.45 1022.29 1022.12
1013.54 1013.99 1014.48 1014.99 1015.49 1015.97 1016.42 1016.83 1017.19 1017.52 1017.82 1018.08 1018.32 1018.55 1018.76 1018.98 1019.20 1019.42 1019.66 1019.91 1020.17 1020.43 1020.68 1020.91 1021.11 1021.28 1021.41 1021.51 1021.59 1021.66 1021.73 1021.82 1021.93 1022.06 1022.19 1022.31 1022.40 1022.45 1022.44 1022.37 1022.24 1022.08 1021.88
1013.20 1013.60 1014.03 1014.49 1014.96 1015.42 1015.86 1016.27 1016.66 1017.01 1017.33 1017.62 1017.87 1018.10 1018.30 1018.50 1018.69 1018.89 1019.09 1019.32 1019.57 1019.83 1020.09 1020.34 1020.56 1020.76 1020.91 1021.04 1021.13 1021.21 1021.29 1021.38 1021.48 1021.61 1021.75 1021.88 1021.99 1022.06 1022.09 1022.05 1021.95 1021.81 1021.63
1013.00 1013.29 1013.62 1013.99 1014.38 1014.78 1015.19 1015.60 1015.99 1016.36 1016.71 1017.03 1017.30 1017.54 1017.74 1017.91 1018.07 1018.23 1018.40 1018.59 1018.81 1019.04 1019.29 1019.53 1019.77 1019.98 1020.15 1020.28 1020.39 1020.48 1020.56 1020.65 1020.76 1020.90 1021.05 1021.20 1021.35 1021.47 1021.54 1021.57 1021.53 1021.44 1021.30
1012.98 1013.12 1013.31 1013.55 1013.83 1014.14 1014.49 1014.86 1015.24 1015.62 1015.99 1016.33 1016.63 1016.88 1017.08 1017.24 1017.38 1017.50 1017.62 1017.77 1017.94 1018.13 1018.35 1018.58 1018.81 1019.01 1019.19 1019.34 1019.45 1019.55 1019.63 1019.73 1019.84 1019.98 1020.14 1020.32 1020.51 1020.68 1020.81 1020.90 1020.94 1020.91 1020.83
1013.14 1013.12 1013.16 1013.24 1013.38 1013.58 1013.84 1014.15 1014.49 1014.86 1015.23 1015.59 1015.90 1016.16 1016.37 1016.53 1016.64 1016.73 1016.81 1016.91 1017.04 1017.19 1017.38 1017.58 1017.79 1017.99 1018.17 1018.32 1018.44 1018.53 1018.62 1018.71 1018.82 1018.95 1019.12 1019.32 1019.53 1019.74 1019.92 1020.08 1020.18 1020.22 1020.20
1013.51 1013.34 1013.21 1013.13 1013.12 1013.19 1013.33 1013.55 1013.84 1014.17 1014.52 1014.86 1015.18 1015.45 1015.66 1015.81 1015.90 1015.97 1016.02 1016.09 1016.18 1016.30 1016.45 1016.63 1016.83 1017.02 1017.19 1017.34 1017.45 1017.55 1017.62 1017.70 1017.80 1017.92 1018.08 1018.27 1018.48 1018.70 1018.92 1019.11 1019.25 1019.35 1019.38
1014.05 1013.75 1013.48 1013.25 1013.10 1013.02 1013.04 1013.15 1013.35 1013.61 1013.91 1014.23 1014.53 1014.78 1014.98 1015.12 1015.21 1015.26 1015.30 1015.34 1015.40 1015.50 1015.63 1015.79 1015.97 1016.15 1016.32 1016.46 1016.57 1016.66 1016.72 1016.78 1016.85 1016.95 1017.07 1017.23 1017.42 1017.63 1017.84 1018.03 1018.19 1018.31 1018.37
1014.74 1014.34 1013.95 1013.60 1013.31 1013.10 1012.99 1012.98 1013.07 1013.24 1013.47 1013.73 1013.98 1014.21 1014.39 1014.51 1014.59 1014.63 1014.65 1014.67 1014.72 1014.79 1014.91 1015.05 1015.22 1015.39 1015.55 1015.68 1015.79 1015.86 1015.91 1015.95 1015.98 1016.03 1016.11 1016.22 1016.36 1016.53 1016.70 1016.88 1017.03 1017.15 1017.22
1015.50 1015.05 1014.58 1014.13 1013.73 1013.40 1013.17 1013.04 1013.02 1013.08 1013.22 1013.39 1013.58 1013.75 1013.89 1013.98 1014.04 1014.06 1014.06 1014.07 1014.10 1014.16 1014.25 1014.38 1014.52 1014.68 1014.83 1014.95 1015.04 1015.10 1015.13 1015.14 1015.14 1015.14 1015.17 1015.23 1015.31 1015.42 1015.54 1015.67 1015.80 1015.90 1015.96
1016.29 1015.81 1015.30 1014.79 1014.31 1013.89 1013.55 1013.31 1013.17 1013.12 1013.14 1013.21 1013.31 1013.41 1013.49 1013.53 1013.55 1013.54 1013.51 1013.49 1013.49 1013.52 1013.59 1013.68 1013.80 1013.93 1014.05 1014.16 1014.23 1014.27 1014.28 1014.27 1014.24 1014.21 1014.19 1014.20 1014.23 1014.29 1014.36 1014.45 1014.54 1014.62 1014.67
1017.02 1016.55 1016.03 1015.49 1014.96 1014.48 1014.06 1013.72 1013.47 1013.31 1013.22 1013.18 1013.17 1013.17 1013.17 1013.14 1013.10 1013.04 1012.97 1012.90 1012.86 1012.84 1012.86 1012.90 1012.98 1013.06 1013.14 1013.22 1013.26 1013.28 1013.28 1013.25 1013.20 1013.16 1013.12 1013.10 1013.10 1013.12 1013.17 1013.23 1013.30 1013.36 1013.41
1017.66 1017.20 1016.69 1016.16 1015.62 1015.10 1014.62 1014.21 1013.87 1013.60 1013.40 1013.25 1013.13 1013.03 1012.92 1012.81 1012.69 1012.56 1012.42 1012.29 1012.18 1012.10 1012.04 1012.02 1012.03 1012.05 1012.07 1012.10 1012.11 1012.11 1012.08 1012.05 1012.00 1011.96 1011.93 1011.91 1011.91 1011.94 1011.99 1012.05 1012.12 1012.19 1012.24
1018.15 1017.72 1017.25 1016.73 1016.20 1015.68 1015.17 1014.72 1014.31 1013.95 1013.65 1013.39 1013.16 1012.95 1012.75 1012.54 1012.33 1012.11 1011.90 1011.69 1011.50 1011.33 1011.19 1011.08 1010.99 1010.93 1010.89 1010.85 1010.82 1010.78 1010.75 1010.71 1010.67 1010.65 1010.64 1010.65 1010.69 1010.75 1010.82 1010.91 1011.01 1011.11 1011.19
1018.50 1018.11 1017.67 1017.19 1016.69 1016.18 1015.67 1015.19 1014.74 1014.32 1013.94 1013.59 1013.26 1012.95 1012.65 1012.34 1012.04 1011.74 1011.43 1011.14 1010.86 1010.60 1010.36 1010.16 1009.98 1009.82 1009.69 1009.59 1009.49 1009.42 1009.36 1009.31 1009.29 1009.29 1009.32 1009.38 1009.46 1009.58 1009.71 1009.85 1009.99 1010.13 1010.25
1018.72 1018.36 1017.96 1017.53 1017.07 1016.59 1016.10 1015.61 1015.14 1014.68 1014.24 1013.81 1013.40 1013.01 1012.62 1012.23 1011.85 1011.46 1011.08 1010.71 1010.34 1010.00 1009.67 1009.37 1009.09 1008.84 1008.62 1008.43 1008.27 1008.14 1008.05 1007.99 1007.96 1007.98 1008.04 1008.15 1008.29 1008.45 1008.64 1008.85 1009.04 1009.23 1009.39
1018.85 1018.52 1018.16 1017.77 1017.36 1016.92 1016.46 1015.98 1015.50 1015.01 1014.53 1014.05 1013.58 1013.11 1012.65 1012.20 1011.75 1011.30 1010.86 1010.42 1010.00 1009.58 1009.18 1008.80 1008.43 1008.09 1007.78 1007.51 1007.27 1007.07 1006.92 1006.83 1006.79 1006.80 1006.88 1007.01 1007.18 1007.40 1007.64 1007.89 1008.14 1008.37 1008.57
1018.93 1018.63 1018.31 1017.96 1017.59 1017.19 1016.75 1016.29 1015.81 1015.31 1014.79 1014.27 1013.75 1013.23 1012.72 1012.21 1011.72 1011.23 1010.75 1010.27 1009.81 1009.35 1008.89 1008.45 1008.02 1007.61 1007.22 1006.86 1006.53 1006.26 1006.04 1005.89 1005.81 1005.79 1005.85 1005.98 1006.16 1006.40 1006.66 1006.95 1007.23 1007.49 1007.73
1019.02 1018.74 1018.44 1018.13 1017.79 1017.41 1017.00 1016.55 1016.06 1015.54 1015.00 1014.44 1013.88 1013.31 1012.76 1012.22 1011.69 1011.18 1010.68 1010.19 1009.71 1009.23 1008.75 1008.27 1007.80 1007.33 1006.87 1006.44 1006.04 1005.69 1005.39 1005.16 1005.01 1004.94 1004.95 1005.05 1005.21 1005.43 1005.70 1005.99 1006.29 1006.58 1006.83
1019.13 1018.86 1018.58 1018.29 1017.97 1017.60 1017.20 1016.74 1016.24 1015.69 1015.12 1014.52 1013.91 1013.30 1012.71 1012.13 1011.58 1011.05 1010.55 1010.06 1009.57 1009.10 1008.62 1008.13 1007.63 1007.13 1006.63 1006.14 1005.68 1005.25 1004.87 1004.56 1004.33 1004.19 1004.13 1004.17 1004.30 1004.49 1004.74 1005.02 1005.32 1005.62 1005.89
1019.27 1019.01 1018.74 1018.44 1018.12 1017.76 1017.34 1016.86 1016.33 1015.75 1015.12 1014.48 1013.81 1013.16 1012.52 1011.90 1011.32 1010.77 1010.25 1009.76 1009.29 1008.82 1008.35 1007.86 1007.37 1006.86 1006.34 1005.81 1005.30 1004.81 1004.37 1003.99 1003.69 1003.47 1003.35 1003.33 1003.40 1003.56 1003.78 1004.05 1004.35 1004.65 1004.94
1019.43 1019.16 1018.88 1018.58 1018.25 1017.86 1017.41 1016.90 1016.33 1015.70 1015.02 1014.31 1013.58 1012.86 1012.16 1011.49 1010.86 1010.28 1009.74 1009.23 1008.76 1008.30 1007.84 1007.37 1006.89 1006.38 1005.86 1005.33 1004.80 1004.28 1003.80 1003.37 1003.02 1002.75 1002.58 1002.51 1002.55 1002.67 1002.87 1003.13 1003.43 1003.74 1004.06
Thickness
5728 5727 5726 5724 5724 5723 5721 5720 5718 5717 5715 5714 5712 5710 5708 5706 5705 5703 5701 5699 5697 5695 5694 5692 5690 5689 5687 5686 5685 5683 5680 5677 5670 5670 5673 5673 5672 5671 5670 5670 5670 5670 5669
5728 5726 5724 5723 5722 5720 5718 5718 5717 5715 5713 5712 5710 5708 5706 5704 5702 5700 5698 5696 5694 5691 5690 5688 5686 5686 5683 5682 5680 5678 5676 5674 5670 5665 5666 5667 5666 5665 5664 5664 5664 5664 5663
5728 5725 5723 5721 5719 5717 5716 5716 5715 5713 5711 5710 5707 5705 5703 5701 5699 5697 5695 5693 5691 5689 5687 5684 5682 5680 5677 5676 5675 5673 5671 5670 5667 5663 5660 5661 5660 5659 5658 5658 5658 5657 5657
5727 5723 5720 5719 5718 5716 5715 5714 5712 5711 5709 5707 5705 5703 5700 5698 5695 5693 5691 5690 5688 5686 5684 5681 5678 5676 5673 5671 5670 5667 5666 5663 5661 5658 5656 5654 5653 5653 5651 5649 5649 5649 5650
5725 5721 5719 5718 5717 5714 5712 5711 5709 5708 5707 5704 5702 5699 5697 5694 5691 5689 5687 5686 5683 5681 5679 5677 5675 5672 5670 5667 5665 5661 5659 5657 5654 5652 5649 5647 5645 5644 5642 5643 5641 5641 5643
5724 5720 5718 5717 5714 5712 5710 5708 5706 5704 5702 5700 5698 5695 5692 5690 5687 5685 5683 5681 5679 5677 5674 5673 5671 5668 5666 5663 5660 5658 5655 5651 5647 5645 5643 5640 5639 5638 5637 5637 5635 5633 5633
5723 5719 5716 5714 5711 5709 5707 5704 5701 5700 5698 5695 5693 5691 5687 5684 5683 5681 5679 5677 5675 5673 5671 5669 5668 5665 5661 5658 5656 5654 5651 5648 5645 5641 5637 5635 5633 5632 5631 5629 5628 5628 5627
5721 5718 5715 5712 5708 5706 5703 5700 5698 5696 5694 5691 5689 5686 5683 5680 5678 5676 5674 5672 5671 5669 5668 5665 5662 5658 5656 5653 5651 5648 5645 5643 5641 5638 5634 5632 5630 5628 5626 5625 5624 5623 5624
5719 5716 5713 5710 5706 5702 5699 5697 5696 5693 5690 5688 5686 5683 5679 5676 5674 5672 5670 5668 5666 5664 5663 5660 5657 5653 5651 5649 5645 5642 5640 5638 5636 5634 5631 5628 5626 5624 5622 5619 5617 5615 5614
5718 5716 5713 5709 5704 5700 5697 5695 5693 5691 5688 5685 5682 5680 5677 5673 5670 5668 5665 5663 5660 5659 5657 5655 5652 5649 5645 5642 5638 5636 5632 5631 5630 5628 5626 5624 5621 5619 5617 5614 5611 5608 5606
5717 5714 5710 5706 5702 5698 5694 5692 5689 5687 5684 5681 5678 5676 5674 5671 5667 5664 5661 5658 5655 5654 5651 5649 5646 5643 5640 5637 5633 5630 5628 5626 5624 5622 5620 5618 5616 5614 5612 5609 5607 5604 5601
5714 5709 5705 5702 5698 5694 5690 5687 5685 5682 5678 5676 5673 5671 5669 5666 5663 5659 5656 5653 5651 5648 5645 5643 5640 5637 5634 5631 5628 5626 5623 5621 5617 5615 5613 5611 5609 5607 5606 5604 5602 5600 5597
5708 5704 5701 5697 5694 5691 5686 5681 5678 5676 5673 5671 5668 5665 5663 5661 5659 5655 5652 5649 5645 5642 5640 5637 5634 5632 5628 5625 5623 5620 5617 5614 5611 5608 5606 5604 5603 5601 5599 5597 5595 5593 5591
5702 5698 5696 5692 5688 5685 5682 5678 5674 5671 5668 5666 5664 5661 5659 5656 5653 5649 5646 5642 5639 5636 5633 5631 5629 5626 5622 5619 5617 5614 5611 5608 5605 5602 5600 5598 5596 5594 5591 5589 5587 5585 5582
5696 5693 5690 5687 5684 5679 5676 5673 5671 5669 5667 5664 5661 5658 5654 5649 5648 5645 5641 5637 5634 5630 5627 5624 5621 5618 5615 5612 5610 5608 5605 5602 5599 5596 5593 5591 5588 5586 5584 5582 5579 5576 5573
5689 5686 5683 5680 5677 5674 5670 5666 5665 5664 5662 5660 5658 5654 5651 5647 5644 5640 5636 5633 5629 5625 5621 5617 5614 5612 5609 5606 5603 5601 5598 5595 5592 5589 5586 5583 5580 5578 5575 5573 5570 5567 5565
5683 5680 5677 5675 5671 5668 5665 5661 5656 5654 5654 5652 5650 5648 5644 5641 5638 5634 5630 5625 5622 5618 5613 5611 5609 5606 5603 5600 5597 5594 5591 5589 5586 5582 5578 5575 5572 5569 5567 5564 5562 5559 5557
5678 5675 5672 5668 5666 5663 5660 5656 5653 5649 5645 5643 5642 5640 5638 5634 5631 5627 5622 5617 5613 5610 5608 5605 5603 5600 5597 5594 5591 5587 5585 5581 5578 5574 5570 5567 5564 5561 5558 5555 5553 5551 5549
5670 5668 5665 5662 5659 5657 5654 5651 5649 5646 5643 5640 5636 5632 5630 5627 5623 5619 5615 5611 5608 5605 5603 5600 5597 5593 5590 5587 5584 5580 5577 5573 5570 5566 5562 5559 5555 5552 5549 5547 5545 5543 5540
5662 5661 5658 5655 5653 5650 5647 5645 5642 5640 5638 5635 5632 5628 5623 5618 5614 5611 5608 5605 5603 5600 5597 5594 5591 5587 5584 5580 5577 5573 5569 5566 5562 5558 5554 5550 5547 5543 5541 5539 5536 5534 5531
5654 5652 5650 5648 5645 5643 5640 5638 5636 5634 5631 5629 5627 5624 5619 5614 5610 5607 5603 5600 5597 5594 5591 5588 5584 5581 5578 5574 5570 5566 5562 5558 5554 5550 5546 5542 5538 5535 5533 5530 5527 5525 5522
5646 5644 5641 5639 5637 5635 5633 5631 5629 5626 5624 5622 5619 5615 5612 5607 5604 5601 5598 5595 5592 5588 5585 5581 5577 5574 5571 5567 5563 5559 5555 5551 5547 5542 5538 5534 5530 5527 5524 5521 5518 5515 5513
5636 5634 5632 5630 5628 5626 5623 5622 5620 5618 5616 5613 5611 5607 5603 5600 5597 5594 5591 5588 5584 5581 5577 5573 5569 5565 5562 5559 5556 5551 5547 5543 5538 5534 5529 5526 5522 5519 5515 5512 5510 5507 5503
5625 5623 5621 5619 5617 5615 5613 5611 5610 5608 5606 5604 5601 5598 5594 5591 5588 5585 5582 5578 5574 5571 5567 5563 5560 5556 5553 5550 5546 5542 5538 5533 5529 5525 5521 5517 5513 5510 5507 5504 5500 5497 5494
5614 5612 5610 5607 5605 5603 5601 5600 5598 5597 5595 5593 5590 5587 5584 5581 5578 5575 5571 5567 5564 5560 5557 5553 5549 5546 5542 5539 5535 5531 5527 5523 5520 5516 5512 5508 5504 5501 5498 5494 5491 5488 5484
5603 5600 5598 5596 5594 5592 5590 5588 5586 5585 5583 5581 5578 5576 5573 5570 5566 5563 5560 5556 5552 5549 5546 5542 5539 5535 5531 5528 5524 5521 5517 5513 5510 5506 5502 5499 5496 5492 5488 5485 5481 5478 5474